Location: Asheville, NC
(35.6000°N, 82.5500°W)
Time: 19:20:09
(UTC-04:00)

XW-2C - Pass Details

Date: 09 February 2018
Orbit: 509 x 532 km, 97.5° (Epoch: 27 May)

Event Time Altitude Azimuth Distance (km) Brightness Sun altitude
Rises 06:31:53 0° 12° (NNE) 2,619 ? -10.9°
Reaches altitude 10° 06:33:58 10° 12° (NNE) 1,730 ? -10.5°
Maximum altitude 06:37:42 87° 103° (ESE) 515 ? -9.8°
Drops below altitude 10° 06:41:25 10° 191° (SSW) 1,724 ? -9.0°
Sets 06:43:30 0° 192° (SSW) 2,609 ? -8.6°
